Location: ???? ????
(41.4149°N, 22.8816°E)
Time: 13:37:45
(UTC+00:00)

Cosmos 1954 Rocket - Pass Details

Date: 14 July 2020
Orbit: 751 x 782 km, 74.0° (Epoch: 04 August)

Event Time Altitude Azimuth Distance (km) Brightness Sun altitude
Exits shadow 00:28:04 42° 170° (S) 1,088 4.4 -21.7°
Maximum altitude 00:29:43 65° 106° (ESE) 847 4.2 -21.5°
Drops below altitude 10° 00:34:58 10° 25° (NNE) 2,336 7.7 -21.0°
Sets 00:37:23 0° 23° (NNE) 3,271 8.8 -20.8°
